VOE3AB LIEE-GMMN

Flight info

Callsign VOE3AB
Flight time N/A
Altitude 31000
Route KOVAS DCT XATOS DCT REQIN UM986 ZEM/N0446F320 UM986 ALR UG26 CHE UA411 FES UR975 SADIC
Aircraft MD88/M-SDFGIRWY/C

Departure

Time 2026-04-27 21:53
Airport Cagliari Elmas Airport (LIEE)

Arrival

Time N/A
Airport Mohammed V International Airport (GMMN)
Time Latitude Longitude Altitude Speed Heading
2026-04-27 20:45 39.25496 9.05805 20 ft 0 kts 322°
2026-04-27 21:35 39.25494 9.05806 19 ft 1 kts 322°
2026-04-27 21:35 39.25486 9.05814 19 ft 2 kts 320°
2026-04-27 21:36 39.25476 9.05825 19 ft 2 kts 321°
2026-04-27 21:36 39.25464 9.05837 19 ft 2 kts 323°
2026-04-27 21:36 39.25454 9.05846 19 ft 0 kts 322°
2026-04-27 21:36 39.25448 9.05857 19 ft 1 kts 276°
2026-04-27 21:37 39.25450 9.05868 19 ft 0 kts 234°
2026-04-27 21:37 39.25454 9.05875 19 ft 1 kts 231°
2026-04-27 21:37 39.25455 9.05875 19 ft 0 kts 231°
2026-04-27 21:45 39.25452 9.05871 19 ft 2 kts 232°
2026-04-27 21:45 39.25437 9.05847 19 ft 4 kts 232°
2026-04-27 21:46 39.25420 9.05818 19 ft 4 kts 232°
2026-04-27 21:46 39.25393 9.05773 19 ft 7 kts 232°
2026-04-27 21:46 39.25359 9.05716 19 ft 7 kts 233°
2026-04-27 21:46 39.25353 9.05656 19 ft 7 kts 296°
2026-04-27 21:47 39.25381 9.05603 19 ft 7 kts 297°
2026-04-27 21:47 39.25396 9.05537 19 ft 8 kts 282°
2026-04-27 21:47 39.25411 9.05457 19 ft 10 kts 289°
2026-04-27 21:47 39.25445 9.05363 19 ft 12 kts 308°
2026-04-27 21:48 39.25514 9.05277 19 ft 13 kts 316°
2026-04-27 21:48 39.25575 9.05202 19 ft 11 kts 316°
2026-04-27 21:48 39.25634 9.05138 19 ft 12 kts 320°
2026-04-27 21:48 39.25706 9.05057 19 ft 16 kts 318°
2026-04-27 21:49 39.25799 9.04948 19 ft 18 kts 318°
2026-04-27 21:49 39.25893 9.04839 19 ft 17 kts 317°
2026-04-27 21:49 39.25976 9.04743 19 ft 15 kts 318°
2026-04-27 21:49 39.26046 9.04662 19 ft 11 kts 318°
2026-04-27 21:50 39.26102 9.04595 19 ft 9 kts 311°
2026-04-27 21:50 39.26127 9.04524 19 ft 7 kts 276°
2026-04-27 21:50 39.26128 9.04461 19 ft 6 kts 266°
2026-04-27 21:50 39.26111 9.04401 19 ft 7 kts 229°
2026-04-27 21:51 39.26082 9.04367 19 ft 2 kts 194°
2026-04-27 21:51 39.26064 9.04372 19 ft 2 kts 154°
2026-04-27 21:51 39.26055 9.04379 19 ft 0 kts 140°
2026-04-27 21:52 39.26033 9.04404 19 ft 13 kts 140°
2026-04-27 21:52 39.25796 9.04680 20 ft 81 kts 137°
2026-04-27 21:52 39.25210 9.05356 29 ft 141 kts 139°
2026-04-27 21:53 39.24414 9.06305 290 ft 170 kts 139°
2026-04-27 21:53 39.23513 9.07373 909 ft 180 kts 136°
2026-04-27 21:53 39.22546 9.08408 1575 ft 185 kts 137°
2026-04-27 21:53 39.21565 9.09532 2067 ft 198 kts 136°
2026-04-27 21:54 39.20509 9.10754 2537 ft 212 kts 136°
2026-04-27 21:54 39.19443 9.11991 3328 ft 208 kts 138°
2026-04-27 21:54 39.18189 9.12966 3831 ft 219 kts 161°
2026-04-27 21:54 39.16629 9.12947 4251 ft 235 kts 197°
2026-04-27 21:55 39.15255 9.11788 4884 ft 245 kts 229°
2026-04-27 21:55 39.14276 9.10099 5942 ft 236 kts 232°
2026-04-27 21:55 39.13471 9.08270 6740 ft 239 kts 253°
2026-04-27 21:55 39.13236 9.06176 7521 ft 242 kts 273°
2026-04-27 21:56 39.13605 9.04015 7791 ft 268 kts 294°
2026-04-27 21:56 39.16283 9.00496 9188 ft 282 kts 319°
2026-04-27 21:56 39.17811 8.98871 9889 ft 288 kts 319°
2026-04-27 21:57 39.19344 8.97213 10693 ft 289 kts 318°
2026-04-27 21:57 39.20873 8.95534 11416 ft 292 kts 318°
2026-04-27 21:57 39.22429 8.93856 12129 ft 295 kts 325°
2026-04-27 21:57 39.24291 8.92718 12559 ft 309 kts 342°
2026-04-27 21:58 39.26499 8.92315 12602 ft 336 kts 359°
2026-04-27 21:58 39.28857 8.92271 12930 ft 349 kts 358°
2026-04-27 21:58 39.31258 8.92199 13656 ft 349 kts 357°
2026-04-27 21:58 39.33549 8.92107 14219 ft 353 kts 357°
2026-04-27 21:59 39.35389 8.92023 14697 ft 355 kts 356°